Showing default

COSMOS 1565, 15004

Orbit data source: Space-Track

COSMOS 1565, 15004 is a payload satellite owned by GUKOS (CIS) in LEO that was launched on Mon, 28 May 1984 UTC via a KOSMOS 11K65M launch vehicle from the Plesetsk Missile And Space Complex (PKMTR). Payloads include a variety of satellites, spacecraft, and rockets equipped with specific instruments for various scientific and technological missions. These include communications satellites like Starlink; space stations such as the ISS; scientific satellites like the Hubble; Earth observation satellites from companies like Planet Labs, Umbra, and HawkEye 360; GPS; miniature CubeSats for education and research; and military/defense satellites.

Loading next visibility...
COSMOS 1565 details
Identifier
15004, 1984-052G
Orbit
LEO
Last TLE update1 day ago
Origin
Flag of CISGUKOS (CIS)
ManufacturerNPO PM
MissionDefense Communications
Bus & MotorSTRELA-1 11F625, Unknown motor
Mass60 kg wet, 60 kg dry
Launch date (UTC)
1984-05-28 (41 years ago)
Launch vehicle
KOSMOS 11K65M
Launch site
Plesetsk Missile And Space Complex (PKMTR)
Object type
Payload
Rocket body
Debris
Shape & HBRSphere, 0.8 m
Radar Cross Section0.588 m², Medium (>0.1 m² and < 1m²)

Expand to show TLE details & history

TLE from 1 day ago
0 COSMOS 1565
1 15004U 84052G   25035.48347418 -.00000011  00000-0  31760-4 0  9997
2 15004  74.0109  54.4846 0044539 259.5462 211.2145 12.55452795864685
Epoch: 2025-02-04T11:36Z
Definitive object data (Epoch: 2025-02-04T11:36:12.169Z)
Latitude64.30866°
Longitude-110.80296°
Altitude1,482.318 km
Speed7.115 km/s
True Right ascension13h 12m 32s
True Declination64° 11' 11"
Sunlit
Object was in daylight at TLE epoch
Visualization TLE readout
Latitude-45.66656°
Longitude-59.12687°
Altitude1,428.718 km
Speed7.16 km/s
Apparent Right ascension12h 28m 19s
Apparent Declination-71° 54' 13"
Sunlit
Object is in daylight
Visualization observer readout
Local Sidereal Time18:58:33
Azimuth203.659° SW
Elevation-39.886°
Doppler factor1
Orbital elements
Apogee altitude1,474.42 km
Perigee altitude1,404.781 km
Semi-major axis7,817.737 km
Eccentricity0.0044539
Inclination74.0109°
RAAN54.4846°
Arg. of periapsis259.5462°
True anomaly210.95125°
Mean anomaly211.2145°
Eccentric anomaly211.08275°
Mean motion3.13994 °/min
BSTAR0.00003176
Orbital period114.65 mins
Loading maneuver chart data...
Loading historical data...
Loading historical data...
Loading historical data...
Loading historical data...
Loading historical data...
Loading historical data...
Loading historical data...

COSMOS 1565 Visibility forecast

Observer location: undefined°, undefined

Span
Click to sort rows by Start time (UTC) header in descending order
Start Az.
Max El. time (UTC)
Max El. Az.
Max El.
End time (UTC)
End Az.
15 mins2025-02-06 01:20:40.172Z167.5° S2025-02-06 01:28:40.172Z90.308° ESE35.857°2025-02-06 01:35:40.172Z31.864° NE
14 mins2025-02-06 03:18:40.172Z236.592° WSW2025-02-06 03:25:40.172Z304.928° NW32.805°2025-02-06 03:32:40.172Z4.76° NNE
14 mins2025-02-06 11:25:40.172Z355.556° N2025-02-06 11:32:40.172Z70.498° E36.341°2025-02-06 11:39:40.172Z133.482° SE
14 mins2025-02-06 13:22:40.172Z321.751° NNW2025-02-06 13:28:40.172Z269.332° W31.667°2025-02-06 13:36:40.172Z199.311° SSW
|